Superior, WI

9:15 PM CST on February 20, 2017 (GMT -0600)
Bong

Weather History for KSUW - March, 2014

Change the Weather History Date:

Monday, March 3, 2014

  Actual Average Record
Temperature  
Mean Temperature -6 °F -  
Max Temperature 10 °F 31 °F 46 °F (1961)
Min Temperature -21 °F 13 °F -21 °F (2014)
Degree Days  
Heating Degree Days 70    
Moisture  
Dew Point -11 °F    
Average Humidity 68    
Maximum Humidity 84    
Minimum Humidity 37    
Precipitation  
Precipitation 0.00 in - - ()
Sea Level Pressure  
Sea Level Pressure 30.41 in    
Wind  
Wind Speed 6 mph (WSW)    
Max Wind Speed 12 mph    
Max Gust Speed -    
Visibility 8 miles    
Events Snow    
Averages and records for this station are not official NWS values.
T = Trace of Precipitation, MM = Missing Value Source: NWS Daily Summary

Daily Weather History Graph

Daily Weather History Graph

Search for Another Location

Airport or City:

Trip Planner

Search our weather history database for the weather conditions in past years. The results will help you decide how hot, cold, wet, or windy it might be!

Date:

Astronomy

Mar. 03, 2014 Rise Set
Actual Time 6:44 AM CST 5:57 PM CST
Civil Twilight 6:13 AM CST 6:27 PM CST
Nautical Twilight 5:38 AM CST 7:02 PM CST
Astronomical Twilight 5:03 AM CST 7:37 PM CST
Moon 7:41 AM CST (3/3) 9:14 PM CST (3/3)
Length of Visible Light 12h 13m
Length of Day
11h 13m
Waxing Crescent, 8% of the Moon is Illuminated
Mar 3
Waxing Crescent
Mar 8
First Quarter
Mar 16
Full
Mar 23
Last Quarter
Mar 30
New

Hourly Weather History & Observations

Time (CST) Temp. Windchill Dew Point Humidity Pressure Visibility Wind Dir Wind Speed Gust Speed Precip Events Conditions
12:15 AM -8.7 °F -21.9 °F -19.1 °F 60% 30.51 in 10.0 mi WNW 5.8 mph - N/A   Clear
12:35 AM -8.7 °F -23.4 °F -19.5 °F 59% 30.51 in 10.0 mi WNW 6.9 mph - N/A   Clear
12:55 AM -9.4 °F -25.6 °F -19.3 °F 62% 30.51 in 10.0 mi NW 8.1 mph - N/A   Clear
1:15 AM -9.8 °F -24.7 °F -19.5 °F 62% 30.51 in 10.0 mi NNW 6.9 mph - N/A   Clear
1:35 AM -11.9 °F -21.5 °F -20.2 °F 67% 30.51 in 10.0 mi NW 3.5 mph - N/A   Clear
1:55 AM -11.6 °F - -20.6 °F 64% 30.52 in 10.0 mi Calm Calm - N/A   Clear
2:15 AM -12.5 °F -22.1 °F -21.5 °F 64% 30.52 in 10.0 mi West 3.5 mph - N/A   Clear
2:35 AM -11.6 °F -23.4 °F -20.4 °F 65% 30.52 in 10.0 mi WSW 4.6 mph - N/A   Clear
2:55 AM -17.0 °F -27.2 °F -24.7 °F 68% 30.52 in 10.0 mi West 3.5 mph - N/A   Clear
3:15 AM -14.1 °F -23.9 °F -21.6 °F 69% 30.51 in 10.0 mi SSW 3.5 mph - N/A   Clear
3:35 AM -18.9 °F -32.0 °F -24.5 °F 76% 30.51 in 10.0 mi SW 4.6 mph - N/A   Clear
3:55 AM -15.3 °F -31.4 °F -20.2 °F 79% 30.51 in 10.0 mi WSW 6.9 mph - N/A   Clear
4:15 AM -14.8 °F -29.1 °F -21.5 °F 72% 30.51 in 10.0 mi WSW 5.8 mph - N/A   Clear
4:35 AM -14.4 °F -28.7 °F -21.1 °F 72% 30.51 in 10.0 mi WSW 5.8 mph - N/A   Clear
4:55 AM -21.5 °F -32.4 °F -27.8 °F 73% 30.52 in 10.0 mi SW 3.5 mph - N/A   Clear
5:15 AM -15.7 °F -30.2 °F -22.0 °F 73% 30.51 in 10.0 mi West 5.8 mph - N/A   Clear
5:35 AM -15.7 °F -30.2 °F -22.0 °F 73% 30.51 in 10.0 mi WSW 5.8 mph - N/A   Clear
5:55 AM -15.9 °F -28.4 °F -22.2 °F 73% 30.50 in 10.0 mi WSW 4.6 mph - N/A   Clear
6:15 AM -16.8 °F -29.5 °F -23.3 °F 72% 30.50 in 10.0 mi SW 4.6 mph - N/A   Clear
6:35 AM -18.0 °F -33.0 °F -22.7 °F 79% 30.50 in 10.0 mi SW 5.8 mph - N/A   Clear
6:55 AM -20.9 °F -36.4 °F -26.5 °F 75% 30.50 in 10.0 mi SSW 5.8 mph - N/A   Clear
7:15 AM -21.6 °F -35.2 °F -26.9 °F 77% 30.49 in 10.0 mi SW 4.6 mph - N/A   Clear
7:35 AM -18.4 °F -33.4 °F -24.5 °F 74% 30.49 in 10.0 mi SW 5.8 mph - N/A   Clear
7:55 AM -17.0 °F -31.7 °F -23.4 °F 72% 30.49 in 10.0 mi SW 5.8 mph - N/A   Clear
8:15 AM -15.0 °F -27.4 °F -21.8 °F 71% 30.49 in 10.0 mi SW 4.6 mph - N/A   Clear
8:35 AM -13.2 °F -25.3 °F -20.7 °F 69% 30.48 in 10.0 mi SW 4.6 mph - N/A   Clear
8:55 AM -11.2 °F -20.6 °F -19.7 °F 66% 30.47 in 10.0 mi SSW 3.5 mph - N/A   Clear
9:15 AM -8.7 °F -23.4 °F -18.4 °F 62% 30.47 in 10.0 mi SW 6.9 mph - N/A   Clear
9:35 AM -6.7 °F -15.5 °F -17.5 °F 59% 30.47 in 10.0 mi SW 3.5 mph - N/A   Clear
9:55 AM -4.4 °F -15.0 °F -16.4 °F 56% 30.46 in 10.0 mi SW 4.6 mph - N/A   Clear
10:15 AM -2.4 °F -14.4 °F -15.3 °F 54% 30.45 in 10.0 mi SSW 5.8 mph - N/A   Clear
10:35 AM -0.8 °F -13.9 °F -14.4 °F 52% 30.45 in 10.0 mi SW 6.9 mph - N/A   Clear
10:55 AM 0.7 °F -15.4 °F -13.5 °F 51% 30.44 in 10.0 mi SSW 10.4 mph - N/A   Clear
11:15 AM 2.5 °F -14.0 °F -13.4 °F 48% 30.44 in 10.0 mi SW 11.5 mph - N/A   Clear
11:35 AM 3.2 °F -10.3 °F -12.8 °F 47% 30.43 in 10.0 mi SSW 8.1 mph - N/A   Clear
11:55 AM 4.1 °F -8.0 °F -12.6 °F 46% 30.41 in 10.0 mi SSW 6.9 mph - N/A   Clear
12:15 PM 5.2 °F -7.9 °F -12.3 °F 45% 30.41 in 10.0 mi SW 8.1 mph - N/A   Scattered Clouds
12:35 PM 6.8 °F -6.9 °F -11.7 °F 43% 30.41 in 10.0 mi SW 9.2 mph - N/A   Clear
12:55 PM 7.5 °F -6.0 °F -12.5 °F 40% 30.40 in 10.0 mi SW 9.2 mph - N/A   Clear
1:15 PM 7.7 °F -4.8 °F -11.4 °F 42% 30.39 in 10.0 mi WSW 8.1 mph - N/A   Scattered Clouds
1:35 PM 8.2 °F -6.0 °F -12.1 °F 39% 30.38 in 10.0 mi WSW 10.4 mph - N/A   Scattered Clouds
1:55 PM 8.4 °F -5.7 °F -11.6 °F 40% 30.37 in 10.0 mi SW 10.4 mph - N/A   Overcast
2:15 PM 9.3 °F -3.8 °F -11.7 °F 38% 30.36 in 10.0 mi SW 9.2 mph - N/A   Overcast
2:35 PM 9.9 °F -2.2 °F -12.1 °F 37% 30.36 in 10.0 mi WSW 8.1 mph - N/A   Overcast
2:55 PM 10.0 °F -0.9 °F -11.6 °F 37% 30.34 in 10.0 mi WSW 6.9 mph - N/A   Overcast
3:15 PM 10.2 °F -3.5 °F -7.4 °F 45% 30.34 in 10.0 mi SW 10.4 mph - N/A   Overcast
3:35 PM 9.5 °F -2.6 °F -2.0 °F 60% 30.34 in 7.0 mi WSW 8.1 mph - N/A   Overcast
3:55 PM 8.6 °F -3.7 °F 1.9 °F 74% 30.34 in 1.8 mi West 8.1 mph - N/A Snow Light Snow
4:15 PM 8.4 °F -4.9 °F 2.1 °F 76% 30.34 in 1.5 mi WSW 9.2 mph - N/A Snow Light Snow
4:35 PM 7.9 °F -2.2 °F 3.0 °F 81% 30.33 in 1.2 mi WSW 5.8 mph - N/A Snow Light Snow
4:55 PM 7.7 °F -4.8 °F 2.8 °F 81% 30.34 in 1.2 mi WSW 8.1 mph - N/A Snow Light Snow
5:15 PM 7.7 °F -2.4 °F 2.8 °F 81% 30.33 in 1.2 mi WSW 5.8 mph - N/A Snow Light Snow
5:35 PM 7.5 °F -1.1 °F 2.7 °F 81% 30.33 in 1.5 mi WSW 4.6 mph - N/A Snow Light Snow
5:55 PM 7.3 °F -4.1 °F 3.0 °F 82% 30.32 in 1.2 mi WSW 6.9 mph - N/A Snow Light Snow
6:15 PM 7.2 °F -6.4 °F 3.0 °F 83% 30.32 in 1.5 mi SW 9.2 mph - N/A Snow Light Snow
6:35 PM 6.8 °F -5.9 °F 2.3 °F 82% 30.32 in 1.8 mi SW 8.1 mph - N/A Snow Light Snow
6:55 PM 6.3 °F -6.5 °F 2.3 °F 84% 30.32 in 2.5 mi SW 8.1 mph - N/A Snow Light Snow
7:15 PM 5.9 °F -8.0 °F 1.4 °F 82% 30.32 in 5.0 mi SW 9.2 mph - N/A Snow Light Snow
7:35 PM 5.7 °F -7.2 °F 1.0 °F 81% 30.32 in 3.0 mi SW 8.1 mph - N/A Snow Light Snow
7:55 PM 5.4 °F -6.5 °F 1.4 °F 84% 30.31 in 2.5 mi SW 6.9 mph - N/A Snow Light Snow
8:15 PM 5.4 °F -5.2 °F 1.4 °F 84% 30.30 in 3.0 mi SW 5.8 mph - N/A Snow Light Snow
8:35 PM 5.4 °F -5.2 °F 1.2 °F 83% 30.30 in 4.0 mi WSW 5.8 mph - N/A Snow Light Snow
8:55 PM 5.4 °F -3.6 °F 1.2 °F 83% 30.30 in 3.0 mi WSW 4.6 mph - N/A Snow Light Snow
9:15 PM 5.0 °F -5.6 °F 0.7 °F 82% 30.30 in 4.0 mi WSW 5.8 mph - N/A Snow Light Snow
9:35 PM 4.5 °F -4.7 °F 0.1 °F 82% 30.29 in 5.0 mi SW 4.6 mph - N/A Snow Light Snow
9:55 PM 3.9 °F -3.4 °F -0.0 °F 84% 30.29 in 10.0 mi SW 3.5 mph - N/A Snow Light Snow
10:15 PM 4.1 °F -3.2 °F 0.1 °F 84% 30.28 in 10.0 mi SW 3.5 mph - N/A Snow Light Snow
10:35 PM 3.9 °F -3.4 °F -0.0 °F 84% 30.27 in 10.0 mi WSW 3.5 mph - N/A Snow Light Snow
10:55 PM 4.5 °F - 0.5 °F 84% 30.27 in 10.0 mi Calm Calm - N/A Snow Light Snow
11:15 PM 4.5 °F - 0.1 °F 82% 30.27 in 10.0 mi Calm Calm - N/A Snow Light Snow
11:35 PM 4.6 °F - -0.0 °F 81% 30.27 in 10.0 mi Calm Calm - N/A   Overcast
11:55 PM 4.6 °F - 0.1 °F 82% 30.27 in 5.0 mi Calm Calm - N/A Snow Light Snow